AWQ816 WIII-WADD

Flight info

Callsign AWQ816
Flight time 1h 27m
Altitude 37000
Route CA T3 MOVMO
Aircraft A320/M-SDE3FGHIRWY/LB1

Departure

Time 2026-05-05 06:17
Airport Soekarno-Hatta International Airport (WIII)

Arrival

Time 2026-05-05 07:44
Airport Denpasar I Gusti Ngurah Rai International Airport (WADD)
Time Latitude Longitude Altitude Speed Heading
2026-05-05 05:58 -6.11987 106.65262 38 ft 0 kts 221°
2026-05-05 06:09 -6.11979 106.65270 38 ft 4 kts 221°
2026-05-05 06:09 -6.11958 106.65288 38 ft 4 kts 221°
2026-05-05 06:09 -6.11938 106.65306 38 ft 4 kts 221°
2026-05-05 06:09 -6.11920 106.65322 38 ft 1 kts 221°
2026-05-05 06:10 -6.11919 106.65323 38 ft 0 kts 221°
2026-05-05 06:12 -6.11918 106.65310 38 ft 5 kts 283°
2026-05-05 06:12 -6.11894 106.65281 38 ft 7 kts 311°
2026-05-05 06:13 -6.11843 106.65237 38 ft 10 kts 335°
2026-05-05 06:13 -6.11780 106.65206 36 ft 10 kts 309°
2026-05-05 06:13 -6.11800 106.65106 38 ft 18 kts 248°
2026-05-05 06:13 -6.11847 106.64986 38 ft 19 kts 248°
2026-05-05 06:14 -6.11896 106.64865 38 ft 19 kts 248°
2026-05-05 06:14 -6.11946 106.64740 37 ft 19 kts 249°
2026-05-05 06:14 -6.11997 106.64612 37 ft 20 kts 248°
2026-05-05 06:14 -6.12051 106.64476 38 ft 22 kts 249°
2026-05-05 06:15 -6.12107 106.64332 38 ft 23 kts 249°
2026-05-05 06:15 -6.12169 106.64182 38 ft 24 kts 248°
2026-05-05 06:15 -6.12232 106.64025 39 ft 24 kts 248°
2026-05-05 06:15 -6.12252 106.63916 39 ft 13 kts 296°
2026-05-05 06:16 -6.12183 106.63880 39 ft 11 kts
2026-05-05 06:16 -6.12111 106.63896 39 ft 11 kts
2026-05-05 06:16 -6.12065 106.63949 38 ft 12 kts 69°
2026-05-05 06:16 -6.11969 106.64188 38 ft 72 kts 68°
2026-05-05 06:17 -6.11705 106.64855 41 ft 131 kts 68°
2026-05-05 06:17 -6.11303 106.65862 51 ft 175 kts 67°
2026-05-05 06:17 -6.10862 106.67003 644 ft 176 kts 68°
2026-05-05 06:17 -6.10403 106.68143 1311 ft 176 kts 56°
2026-05-05 06:18 -6.09638 106.69111 1910 ft 181 kts 46°
2026-05-05 06:18 -6.08707 106.70067 2156 ft 203 kts 45°
2026-05-05 06:18 -6.07639 106.71126 2394 ft 227 kts 45°
2026-05-05 06:18 -6.06456 106.72307 2739 ft 252 kts 46°
2026-05-05 06:19 -6.05193 106.73584 3404 ft 261 kts 46°
2026-05-05 06:19 -6.03908 106.74894 4212 ft 265 kts 47°
2026-05-05 06:19 -6.02612 106.76233 5051 ft 269 kts 47°
2026-05-05 06:19 -6.01308 106.77585 5847 ft 271 kts 47°
2026-05-05 06:20 -5.99989 106.78955 6606 ft 275 kts 47°
2026-05-05 06:20 -5.98721 106.80405 7337 ft 278 kts 59°
2026-05-05 06:20 -5.98050 106.82216 8033 ft 281 kts 83°
2026-05-05 06:20 -5.98219 106.84167 8727 ft 284 kts 106°
2026-05-05 06:21 -5.98860 106.86061 9409 ft 288 kts 108°
2026-05-05 06:21 -5.99525 106.87972 10080 ft 292 kts 108°
2026-05-05 06:21 -6.00215 106.89952 10362 ft 311 kts 108°
2026-05-05 06:21 -6.00947 106.92069 10530 ft 331 kts 108°
2026-05-05 06:22 -6.01700 106.94259 10962 ft 340 kts 108°
2026-05-05 06:22 -6.02486 106.96545 11555 ft 344 kts 109°
2026-05-05 06:22 -6.03260 106.98801 12172 ft 348 kts 109°
2026-05-05 06:22 -6.04052 107.01107 12762 ft 351 kts 109°
2026-05-05 06:23 -6.04852 107.03441 13360 ft 355 kts 109°
2026-05-05 06:23 -6.05657 107.05792 13962 ft 357 kts 108°
2026-05-05 06:23 -6.06467 107.08163 14538 ft 360 kts 108°
2026-05-05 06:23 -6.07284 107.10554 15095 ft 363 kts 108°
2026-05-05 06:24 -6.08108 107.12962 15642 ft 366 kts 108°
2026-05-05 06:24 -6.08939 107.15389 16166 ft 369 kts 108°
2026-05-05 06:24 -6.09782 107.17835 16689 ft 372 kts 109°
2026-05-05 06:24 -6.10715 107.20267 17187 ft 375 kts 112°
2026-05-05 06:25 -6.11749 107.22690 17692 ft 378 kts 113°
2026-05-05 06:25 -6.12837 107.25102 18187 ft 380 kts 114°
2026-05-05 06:25 -6.13943 107.27522 18652 ft 383 kts 114°
2026-05-05 06:25 -6.15052 107.29970 19114 ft 386 kts 114°
2026-05-05 06:26 -6.16154 107.32440 19571 ft 389 kts 113°
2026-05-05 06:26 -6.17251 107.34927 20006 ft 391 kts 113°
2026-05-05 06:26 -6.18350 107.37444 20438 ft 394 kts 113°
2026-05-05 06:26 -6.19447 107.39974 20879 ft 397 kts 113°
2026-05-05 06:27 -6.20552 107.42529 21300 ft 399 kts 113°
2026-05-05 06:27 -6.22782 107.47679 22100 ft 405 kts 113°
2026-05-05 06:27 -6.23911 107.50280 22497 ft 408 kts 113°
2026-05-05 06:28 -6.25052 107.52902 22881 ft 410 kts 113°
2026-05-05 06:28 -6.26198 107.55532 23237 ft 412 kts 113°
2026-05-05 06:28 -6.27355 107.58179 23599 ft 415 kts 113°
2026-05-05 06:28 -6.28522 107.60846 23947 ft 417 kts 113°
2026-05-05 06:29 -6.29690 107.63524 24284 ft 420 kts 113°
2026-05-05 06:29 -6.30865 107.66217 24612 ft 422 kts 113°
2026-05-05 06:29 -6.32045 107.68927 24941 ft 424 kts 113°
2026-05-05 06:29 -6.33228 107.71649 25267 ft 426 kts 113°
2026-05-05 06:30 -6.34414 107.74384 25590 ft 428 kts 113°
2026-05-05 06:30 -6.35606 107.77130 25892 ft 429 kts 113°
2026-05-05 06:30 -6.36802 107.79881 26192 ft 431 kts 113°
2026-05-05 06:30 -6.38008 107.82651 26470 ft 433 kts 113°
2026-05-05 06:31 -6.39220 107.85434 26753 ft 435 kts 112°
2026-05-05 06:31 -6.40430 107.88220 27021 ft 436 kts 112°
2026-05-05 06:31 -6.41645 107.91023 27277 ft 438 kts 112°
2026-05-05 06:31 -6.42861 107.93831 27531 ft 439 kts 112°
2026-05-05 06:32 -6.44087 107.96655 27775 ft 441 kts 113°
2026-05-05 06:32 -6.45322 107.99485 28022 ft 443 kts 112°
2026-05-05 06:32 -6.46558 108.02321 28264 ft 444 kts 113°
2026-05-05 06:32 -6.47800 108.05175 28500 ft 446 kts 113°
2026-05-05 06:33 -6.49042 108.08038 28722 ft 447 kts 112°
2026-05-05 06:33 -6.50282 108.10906 28937 ft 449 kts 112°
2026-05-05 06:33 -6.51527 108.13789 29158 ft 450 kts 112°
2026-05-05 06:33 -6.52780 108.16684 29372 ft 452 kts 112°
2026-05-05 06:34 -6.54036 108.19588 29593 ft 453 kts 112°
2026-05-05 06:34 -6.55297 108.22498 29793 ft 455 kts 112°
2026-05-05 06:34 -6.56562 108.25415 29993 ft 456 kts 113°
2026-05-05 06:34 -6.57839 108.28344 30188 ft 458 kts 112°
2026-05-05 06:35 -6.59117 108.31282 30386 ft 460 kts 112°
2026-05-05 06:35 -6.60395 108.34230 30569 ft 461 kts 112°
2026-05-05 06:35 -6.61676 108.37186 30739 ft 462 kts 112°
2026-05-05 06:35 -6.62555 108.39220 30853 ft 463 kts 112°
2026-05-05 06:36 -6.63306 108.40959 30975 ft 463 kts 112°
2026-05-05 06:37 -6.64586 108.43927 31250 ft 462 kts 112°
2026-05-05 06:37 -6.65865 108.46890 31517 ft 461 kts 112°
2026-05-05 06:37 -6.67144 108.49848 31751 ft 461 kts 112°
2026-05-05 06:37 -6.68425 108.52810 31985 ft 462 kts 112°
2026-05-05 06:38 -6.69579 108.55816 32244 ft 460 kts 105°
2026-05-05 06:38 -6.70267 108.58952 32497 ft 459 kts 98°
2026-05-05 06:38 -6.70750 108.62124 32714 ft 459 kts 98°
2026-05-05 06:38 -6.71230 108.65291 32957 ft 459 kts 98°
2026-05-05 06:39 -6.71710 108.68464 33192 ft 458 kts 98°
2026-05-05 06:39 -6.72183 108.71615 33386 ft 455 kts 98°
2026-05-05 06:39 -6.72673 108.74767 33556 ft 456 kts 98°
2026-05-05 06:39 -6.73166 108.77921 33746 ft 457 kts 98°
2026-05-05 06:40 -6.73661 108.81082 33837 ft 454 kts 98°
2026-05-05 06:40 -6.74624 108.87292 33850 ft 447 kts 98°
2026-05-05 06:41 -6.75567 108.93472 33850 ft 447 kts 98°
2026-05-05 06:41 -6.76276 108.98161 33850 ft 447 kts 98°
2026-05-05 06:42 -6.76811 109.01660 33850 ft 447 kts 98°
2026-05-05 06:42 -6.77603 109.06839 33980 ft 441 kts 98°
2026-05-05 06:43 -6.78535 109.12910 34009 ft 438 kts 99°
2026-05-05 06:43 -6.79434 109.18780 33970 ft 435 kts 98°
2026-05-05 06:43 -6.79884 109.21750 33835 ft 424 kts 98°
2026-05-05 06:44 -6.80325 109.24669 33841 ft 424 kts 98°
2026-05-05 06:44 -6.81224 109.30615 33851 ft 435 kts 98°
2026-05-05 06:45 -6.82157 109.36715 33841 ft 445 kts 98°
2026-05-05 06:45 -6.83100 109.42891 33841 ft 447 kts 98°
2026-05-05 06:46 -6.84043 109.49079 33841 ft 448 kts 98°
2026-05-05 06:46 -6.84981 109.55268 33841 ft 448 kts 98°
2026-05-05 06:47 -6.85926 109.61459 33837 ft 448 kts 98°
2026-05-05 06:47 -6.86868 109.67651 33834 ft 447 kts 98°
2026-05-05 06:48 -6.87802 109.73833 33830 ft 447 kts 98°
2026-05-05 06:48 -6.88733 109.80020 33829 ft 447 kts 98°
2026-05-05 06:49 -6.89665 109.86208 33826 ft 447 kts 98°
2026-05-05 06:49 -6.90599 109.92388 33830 ft 447 kts 98°
2026-05-05 06:50 -6.91538 109.98572 33830 ft 447 kts 98°
2026-05-05 06:50 -6.92469 110.04763 33822 ft 447 kts 98°
2026-05-05 06:51 -6.93005 110.08330 33822 ft 448 kts 98°
2026-05-05 06:51 -6.93772 110.13422 33821 ft 448 kts 98°
2026-05-05 06:52 -6.94682 110.19449 33822 ft 448 kts 98°
2026-05-05 06:52 -6.95613 110.25653 33824 ft 448 kts 98°
2026-05-05 06:53 -6.96487 110.31450 33828 ft 449 kts 98°
2026-05-05 06:53 -6.96935 110.34416 33826 ft 449 kts 98°
2026-05-05 06:54 -6.97520 110.40612 33836 ft 447 kts 91°
2026-05-05 06:54 -6.97566 110.43564 33996 ft 441 kts 91°
2026-05-05 06:54 -6.97618 110.46629 33970 ft 436 kts 90°
2026-05-05 06:54 -6.97673 110.49681 33826 ft 425 kts 90°
2026-05-05 06:55 -6.97729 110.52609 33830 ft 425 kts 90°
2026-05-05 06:55 -6.97845 110.58636 33843 ft 437 kts 90°
2026-05-05 06:56 -6.97952 110.64838 33841 ft 447 kts 90°
2026-05-05 06:56 -6.98066 110.71112 33842 ft 449 kts 91°
2026-05-05 06:57 -6.98180 110.77399 33841 ft 449 kts 90°
2026-05-05 06:57 -6.98289 110.83684 33841 ft 449 kts 90°
2026-05-05 06:58 -6.98391 110.89963 33835 ft 449 kts 90°
2026-05-05 06:58 -6.98498 110.96240 33831 ft 449 kts 90°
2026-05-05 06:59 -6.98605 111.02525 33829 ft 449 kts 90°
2026-05-05 06:59 -6.98716 111.08805 33828 ft 449 kts 90°
2026-05-05 07:00 -6.98826 111.15083 33827 ft 449 kts 90°
2026-05-05 07:00 -6.98933 111.21371 33828 ft 449 kts 90°
2026-05-05 07:01 -6.99043 111.27658 33833 ft 449 kts 90°
2026-05-05 07:01 -6.99143 111.33946 33829 ft 449 kts 90°
2026-05-05 07:02 -6.99344 111.40227 33825 ft 450 kts 97°
2026-05-05 07:02 -7.01084 111.46250 33828 ft 450 kts 113°
2026-05-05 07:03 -7.03527 111.52043 33830 ft 450 kts 112°
2026-05-05 07:03 -7.05955 111.57841 33824 ft 450 kts 112°
2026-05-05 07:04 -7.08383 111.63644 33828 ft 450 kts 112°
2026-05-05 07:04 -7.10812 111.69457 33829 ft 451 kts 112°
2026-05-05 07:05 -7.13244 111.75284 33828 ft 452 kts 112°
2026-05-05 07:05 -7.15680 111.81112 33831 ft 451 kts 112°
2026-05-05 07:06 -7.18114 111.86943 33830 ft 452 kts 112°
2026-05-05 07:06 -7.20553 111.92788 33829 ft 453 kts 113°
2026-05-05 07:07 -7.22976 111.98585 33830 ft 453 kts 113°
2026-05-05 07:07 -7.25421 112.04438 33834 ft 453 kts 113°
2026-05-05 07:08 -7.27850 112.10254 33838 ft 454 kts 113°
2026-05-05 07:08 -7.30299 112.16125 33840 ft 455 kts 113°
2026-05-05 07:09 -7.32741 112.22002 33843 ft 455 kts 113°
2026-05-05 07:09 -7.35194 112.27890 33843 ft 456 kts 113°
2026-05-05 07:10 -7.37653 112.33778 33836 ft 456 kts 113°
2026-05-05 07:10 -7.40110 112.39674 33837 ft 456 kts 113°
2026-05-05 07:11 -7.41406 112.42802 33835 ft 457 kts 113°
2026-05-05 07:11 -7.43579 112.48057 33834 ft 456 kts 113°
2026-05-05 07:12 -7.46031 112.53933 33833 ft 456 kts 113°
2026-05-05 07:12 -7.47696 112.57924 33831 ft 456 kts 113°
2026-05-05 07:13 -7.48977 112.61000 33832 ft 457 kts 113°
2026-05-05 07:13 -7.51319 112.66659 33990 ft 444 kts 112°
2026-05-05 07:14 -7.53667 112.72323 33827 ft 429 kts 113°
2026-05-05 07:14 -7.55964 112.77850 33835 ft 431 kts 113°
2026-05-05 07:15 -7.58320 112.83507 33842 ft 445 kts 113°
2026-05-05 07:15 -7.60741 112.89336 33840 ft 454 kts 113°
2026-05-05 07:16 -7.63174 112.95218 33842 ft 456 kts 113°
2026-05-05 07:16 -7.65613 113.01113 33841 ft 456 kts 113°
2026-05-05 07:17 -7.68055 113.07004 33841 ft 455 kts 113°
2026-05-05 07:17 -7.70086 113.11903 33838 ft 455 kts 113°
2026-05-05 07:18 -7.72936 113.18779 33832 ft 455 kts 113°
2026-05-05 07:18 -7.74961 113.23670 33831 ft 455 kts 113°
2026-05-05 07:19 -7.77392 113.29562 33824 ft 455 kts 113°
2026-05-05 07:19 -7.79825 113.35459 33830 ft 455 kts 113°
2026-05-05 07:20 -7.82264 113.41355 33829 ft 455 kts 113°
2026-05-05 07:20 -7.84023 113.45612 33828 ft 455 kts 113°
2026-05-05 07:21 -7.86348 113.51271 33831 ft 455 kts 113°
2026-05-05 07:21 -7.88783 113.57162 33828 ft 455 kts 113°
2026-05-05 07:22 -7.91221 113.63059 33829 ft 456 kts 113°
2026-05-05 07:22 -7.93657 113.68962 33831 ft 456 kts 113°
2026-05-05 07:23 -7.96090 113.74863 33830 ft 456 kts 113°
2026-05-05 07:23 -7.98523 113.80767 33830 ft 456 kts 113°
2026-05-05 07:23 -7.99942 113.83615 33823 ft 454 kts 124°
2026-05-05 07:24 -8.01888 113.86102 33828 ft 451 kts 136°
2026-05-05 07:24 -8.04274 113.88145 33729 ft 448 kts 147°
2026-05-05 07:24 -8.06962 113.89681 33221 ft 442 kts 159°
2026-05-05 07:24 -8.09885 113.90555 32683 ft 436 kts 173°
2026-05-05 07:25 -8.12885 113.90924 32163 ft 433 kts 174°
2026-05-05 07:25 -8.15868 113.91269 31636 ft 430 kts 174°
2026-05-05 07:25 -8.18830 113.91621 31121 ft 427 kts 174°
2026-05-05 07:25 -8.21766 113.91976 30616 ft 424 kts 173°
2026-05-05 07:26 -8.24686 113.92336 30121 ft 421 kts 173°
2026-05-05 07:26 -8.27583 113.92698 29629 ft 418 kts 173°
2026-05-05 07:26 -8.30457 113.93060 29148 ft 414 kts 173°
2026-05-05 07:26 -8.33303 113.93420 28674 ft 411 kts 173°
2026-05-05 07:27 -8.36129 113.93778 28216 ft 407 kts 173°
2026-05-05 07:27 -8.38934 113.94131 27756 ft 404 kts 173°
2026-05-05 07:27 -8.41715 113.94480 27299 ft 401 kts 173°
2026-05-05 07:27 -8.44473 113.94824 26846 ft 398 kts 173°
2026-05-05 07:28 -8.47215 113.95163 26384 ft 396 kts 173°
2026-05-05 07:28 -8.49943 113.95500 25924 ft 394 kts 173°
2026-05-05 07:28 -8.52655 113.95835 25450 ft 391 kts 173°
2026-05-05 07:28 -8.55350 113.96192 24971 ft 389 kts 168°
2026-05-05 07:29 -8.57898 113.97045 24474 ft 387 kts 153°
2026-05-05 07:29 -8.60217 113.98516 24103 ft 411 kts 144°
2026-05-05 07:29 -8.62488 114.00118 24181 ft 421 kts 146°
2026-05-05 07:29 -8.64586 114.01748 24726 ft 416 kts 136°
2026-05-05 07:30 -8.66348 114.03819 25425 ft 409 kts 124°
2026-05-05 07:30 -8.68601 114.09059 25827 ft 410 kts 110°
2026-05-05 07:30 -8.69578 114.11747 25404 ft 404 kts 110°
2026-05-05 07:31 -8.70440 114.14430 24985 ft 400 kts 106°
2026-05-05 07:31 -8.71183 114.17117 24604 ft 394 kts 106°
2026-05-05 07:31 -8.71903 114.19729 24132 ft 391 kts 108°
2026-05-05 07:31 -8.72620 114.22122 23890 ft 382 kts 107°
2026-05-05 07:32 -8.73384 114.24619 23740 ft 371 kts 108°
2026-05-05 07:32 -8.74106 114.26998 23238 ft 370 kts 107°
2026-05-05 07:32 -8.74863 114.29490 22588 ft 374 kts 108°
2026-05-05 07:32 -8.75593 114.31897 22091 ft 374 kts 106°
2026-05-05 07:33 -8.76201 114.34422 21613 ft 372 kts 102°
2026-05-05 07:33 -8.76462 114.36985 20867 ft 379 kts 92°
2026-05-05 07:33 -8.76492 114.39457 20174 ft 385 kts 90°
2026-05-05 07:33 -8.76464 114.42151 19387 ft 391 kts 89°
2026-05-05 07:34 -8.76424 114.44898 18591 ft 397 kts 90°
2026-05-05 07:34 -8.76403 114.47670 18132 ft 394 kts 89°
2026-05-05 07:34 -8.76378 114.50388 17638 ft 391 kts 90°
2026-05-05 07:34 -8.76389 114.53018 17162 ft 389 kts 91°
2026-05-05 07:35 -8.76356 114.55712 16294 ft 396 kts 87°
2026-05-05 07:35 -8.76132 114.58421 15324 ft 405 kts 85°
2026-05-05 07:35 -8.75969 114.61312 14167 ft 417 kts 88°
2026-05-05 07:35 -8.75868 114.64036 13670 ft 413 kts 88°
2026-05-05 07:36 -8.75758 114.66796 13219 ft 405 kts 87°
2026-05-05 07:36 -8.75591 114.69526 12653 ft 382 kts 86°
2026-05-05 07:36 -8.75463 114.72017 12603 ft 340 kts 88°
2026-05-05 07:36 -8.75369 114.74340 12423 ft 329 kts 88°
2026-05-05 07:37 -8.75308 114.76616 12020 ft 321 kts 89°
2026-05-05 07:37 -8.75281 114.78745 11465 ft 304 kts 89°
2026-05-05 07:37 -8.75283 114.80584 11119 ft 282 kts 90°
2026-05-05 07:37 -8.75296 114.81935 10906 ft 273 kts 90°
2026-05-05 07:38 -8.75328 114.83803 10344 ft 265 kts 91°
2026-05-05 07:38 -8.75378 114.85668 9591 ft 274 kts 91°
2026-05-05 07:38 -8.75413 114.87612 8813 ft 276 kts 90°
2026-05-05 07:38 -8.75350 114.89509 8437 ft 260 kts 87°
2026-05-05 07:39 -8.75243 114.91278 8089 ft 245 kts 86°
2026-05-05 07:39 -8.75171 114.92962 7713 ft 235 kts 89°
2026-05-05 07:39 -8.75172 114.94602 7182 ft 232 kts 91°
2026-05-05 07:39 -8.75228 114.96188 6870 ft 220 kts 93°
2026-05-05 07:40 -8.75318 114.97712 6418 ft 216 kts 94°
2026-05-05 07:40 -8.75386 114.99132 6399 ft 187 kts 90°
2026-05-05 07:40 -8.75372 115.00379 6192 ft 175 kts 90°
2026-05-05 07:40 -8.75368 115.01591 5837 ft 172 kts 90°
2026-05-05 07:41 -8.75365 115.02804 5464 ft 166 kts 90°
2026-05-05 07:41 -8.75374 115.03888 5274 ft 151 kts 91°
2026-05-05 07:41 -8.75358 115.04976 4780 ft 156 kts 87°
2026-05-05 07:41 -8.75306 115.06081 4317 ft 158 kts 88°
2026-05-05 07:42 -8.75297 115.07168 3962 ft 153 kts 91°
2026-05-05 07:42 -8.75294 115.08358 3631 ft 178 kts 88°
2026-05-05 07:42 -8.75235 115.09549 3343 ft 163 kts 87°
2026-05-05 07:42 -8.75173 115.10672 2918 ft 159 kts 86°
2026-05-05 07:43 -8.75082 115.11816 2066 ft 175 kts 86°
2026-05-05 07:43 -8.74950 115.13116 1159 ft 185 kts 87°
2026-05-05 07:43 -8.74898 115.14371 624 ft 173 kts 90°
2026-05-05 07:43 -8.74886 115.15540 202 ft 163 kts 90°
2026-05-05 07:44 -8.74843 115.16616 31 ft 139 kts 87°
2026-05-05 07:44 -8.74821 115.17358 28 ft 63 kts 88°
2026-05-05 07:44 -8.74815 115.17668 28 ft 24 kts 89°